Location: Napa Soda Springs
(38.3907°N, 122.2794°W)
Time: 07:59:47
(UTC+00:00)

Meteor 2-10 Rocket - Pass Details

Date: 29 October 2020
Orbit: 734 x 885 km, 81.2° (Epoch: 02 December)

Event Time Altitude Azimuth Distance (km) Brightness Sun altitude
Rises 13:10:44 0° 356° (N) 3,172 6.6 -16.6°
Reaches altitude 10° 13:13:07 10° 1° (N) 2,251 5.9 -16.2°
Maximum altitude 13:18:02 53° 78° (ENE) 921 4.3 -15.2°
Drops below altitude 10° 13:23:02 10° 155° (SSE) 2,292 6.4 -14.2°
Sets 13:25:28 0° 160° (SSE) 3,235 7.1 -13.8°
